Location: Boda
(47.1872°N, 9.5454°E)
Time: 09:39:53
(UTC+00:00)

Okean 1 Rocket - Pass Details

Date: 14 May 2021
Orbit: 605 x 635 km, 82.5° (Epoch: 16 June)

Event Time Altitude Azimuth Distance (km) Brightness Sun altitude
Rises 00:59:19 0° 342° (NNW) 2,903 7.2 -20.4°
Reaches altitude 10° 01:01:43 10° 333° (NNW) 1,987 6.1 -20.2°
Maximum altitude 01:05:39 33° 270° (W) 1,037 3.9 -19.9°
Enters shadow 01:05:55 33° 262° (W) 1,043 3.9 -19.9°
